Time,TemperatureF,DewpointF,PressureIn,WindDirection,WindDirectionDegrees,WindSpeedMPH,WindSpeedGustMPH,Humidity,HourlyPrecipIn,Conditions,Clouds,dailyrainin,SoftwareType,DateUTC
2013-01-09 07:46:00,43.9,42.5,30.34,SW,232,0.0,1.0,95,0.00,,,0.00,WUHU216DAVISVP2,2013-01-09 13:46:00,
2013-01-09 07:51:00,43.8,42.7,30.34,SW,233,0.0,4.0,96,0.00,,,0.00,WUHU216DAVISVP2,2013-01-09 13:51:00,
2013-01-09 07:56:00,43.9,42.8,30.35,SW,233,0.0,4.0,96,0.00,,,0.00,WUHU216DAVISVP2,2013-01-09 13:56:00,
2013-01-09 08:01:00,43.9,42.8,30.35,SW,233,0.0,4.0,96,0.00,,,0.00,WUHU216DAVISVP2,2013-01-09 14:01:00,
2013-01-09 08:06:00,43.9,42.8,30.35,SW,233,2.0,4.0,96,0.00,,,0.00,WUHU216DAVISVP2,2013-01-09 14:06:00,
2013-01-09 08:11:00,43.7,42.6,30.35,SW,233,3.0,3.0,96,0.00,,,0.00,WUHU216DAVISVP2,2013-01-09 14:11:00,
2013-01-09 08:16:00,43.6,42.5,30.35,SW,233,1.0,4.0,96,0.00,,,0.00,WUHU216DAVISVP2,2013-01-09 14:16:00,
2013-01-09 08:21:00,43.3,42.2,30.35,SW,233,0.0,4.0,96,0.00,,,0.00,WUHU216DAVISVP2,2013-01-09 14:21:00,
2013-01-09 08:26:00,43.2,42.1,30.36,SW,233,0.0,4.0,96,0.00,,,0.00,WUHU216DAVISVP2,2013-01-09 14:26:00,
2013-01-09 08:31:00,42.9,41.8,30.36,SW,233,0.0,4.0,96,0.00,,,0.00,WUHU216DAVISVP2,2013-01-09 14:31:00,
2013-01-09 08:36:00,42.8,41.7,30.36,SW,233,1.0,4.0,96,0.06,,,0.06,WUHU216DAVISVP2,2013-01-09 14:36:00,
2013-01-09 08:41:00,42.6,41.5,30.36,SW,233,1.0,4.0,96,0.06,,,0.06,WUHU216DAVISVP2,2013-01-09 14:41:00,
2013-01-09 08:46:00,42.4,41.4,30.36,SW,234,0.0,5.0,96,0.06,,,0.06,WUHU216DAVISVP2,2013-01-09 14:46:00,
2013-01-09 08:51:00,42.4,41.3,30.36,SW,235,5.0,5.0,96,0.06,,,0.06,WUHU216DAVISVP2,2013-01-09 14:51:00,
2013-01-09 08:56:00,42.2,41.1,30.36,SW,235,3.0,6.0,96,0.06,,,0.06,WUHU216DAVISVP2,2013-01-09 14:56:00,
2013-01-09 09:01:00,42.2,40.8,30.36,SW,235,2.0,6.0,95,0.06,,,0.06,WUHU216DAVISVP2,2013-01-09 15:01:00,
2013-01-09 09:06:00,42.0,41.0,30.36,SW,236,0.0,6.0,96,0.06,,,0.06,WUHU216DAVISVP2,2013-01-09 15:06:00,
2013-01-09 09:11:00,42.1,41.0,30.36,SW,236,1.0,6.0,96,0.06,,,0.06,WUHU216DAVISVP2,2013-01-09 15:11:00,
2013-01-09 09:16:00,42.1,41.0,30.37,SW,236,4.0,6.0,96,0.06,,,0.06,WUHU216DAVISVP2,2013-01-09 15:16:00,
2013-01-09 09:21:00,42.0,40.6,30.37,SW,236,4.0,6.0,95,0.06,,,0.06,WUHU216DAVISVP2,2013-01-09 15:21:00,
2013-01-09 09:26:00,42.0,40.6,30.37,SW,236,4.0,6.0,95,0.06,,,0.06,WUHU216DAVISVP2,2013-01-09 15:26:00,
2013-01-09 09:31:00,42.0,40.7,30.37,WSW,237,4.0,6.0,95,0.06,,,0.06,WUHU216DAVISVP2,2013-01-09 15:31:00,
2013-01-09 09:36:00,42.0,40.6,30.37,WSW,237,3.0,7.0,95,0.00,,,0.06,WUHU216DAVISVP2,2013-01-09 15:36:00,
2013-01-09 09:41:00,42.1,40.7,30.37,WSW,237,0.0,7.0,95,0.00,,,0.06,WUHU216DAVISVP2,2013-01-09 15:41:00,
2013-01-09 09:46:00,42.0,40.4,30.37,WSW,241,4.0,8.0,94,0.00,,,0.06,WUHU216DAVISVP2,2013-01-09 15:46:00,
2013-01-09 09:51:00,42.1,40.2,30.37,WSW,240,1.0,8.0,93,0.00,,,0.06,WUHU216DAVISVP2,2013-01-09 15:51:00,
2013-01-09 09:56:00,42.3,40.1,30.38,WSW,242,3.0,8.0,92,0.00,,,0.06,WUHU216DAVISVP2,2013-01-09 15:56:00,
2013-01-09 10:01:00,42.5,40.3,30.38,WSW,242,0.0,8.0,92,0.00,,,0.06,WUHU216DAVISVP2,2013-01-09 16:01:00,
2013-01-09 10:06:00,42.7,40.2,30.38,WSW,241,5.0,8.0,91,0.00,,,0.06,WUHU216DAVISVP2,2013-01-09 16:06:00,
2013-01-09 10:11:00,42.7,39.3,30.38,WSW,241,6.0,8.0,88,0.00,,,0.06,WUHU216DAVISVP2,2013-01-09 16:11:00,
2013-01-09 10:16:00,42.9,39.2,30.38,SW,231,6.0,8.0,87,0.00,,,0.06,WUHU216DAVISVP2,2013-01-09 16:16:00,
2013-01-09 10:21:00,43.0,39.4,30.37,WSW,243,3.0,8.0,87,0.00,,,0.06,WUHU216DAVISVP2,2013-01-09 16:21:00,
2013-01-09 10:26:00,43.2,39.3,30.37,SW,231,5.0,8.0,86,0.00,,,0.06,WUHU216DAVISVP2,2013-01-09 16:26:00,
2013-01-09 10:31:00,43.4,38.9,30.37,WSW,256,5.0,8.0,84,0.00,,,0.06,WUHU216DAVISVP2,2013-01-09 16:31:00,
2013-01-09 10:36:00,43.5,39.0,30.37,WSW,256,2.0,8.0,84,0.00,,,0.06,WUHU216DAVISVP2,2013-01-09 16:36:00,
2013-01-09 10:41:00,43.7,38.9,30.37,West,260,6.0,8.0,83,0.00,,,0.06,WUHU216DAVISVP2,2013-01-09 16:41:00,
2013-01-09 10:46:00,44.0,38.9,30.37,West,269,5.0,8.0,82,0.00,,,0.06,WUHU216DAVISVP2,2013-01-09 16:46:00,
2013-01-09 10:51:00,44.2,38.8,30.36,West,271,2.0,8.0,81,0.00,,,0.06,WUHU216DAVISVP2,2013-01-09 16:51:00,
2013-01-09 10:56:00,44.5,38.7,30.36,WNW,291,7.0,10.0,80,0.00,,,0.06,WUHU216DAVISVP2,2013-01-09 16:56:00,
2013-01-09 11:01:00,44.8,38.4,30.36,West,272,7.0,10.0,78,0.00,,,0.06,WUHU216DAVISVP2,2013-01-09 17:01:00,
2013-01-09 11:06:00,45.1,38.4,30.37,WNW,283,5.0,10.0,77,0.00,,,0.06,WUHU216DAVISVP2,2013-01-09 17:06:00,
2013-01-09 11:11:00,45.5,38.5,30.37,West,276,7.0,10.0,76,0.00,,,0.06,WUHU216DAVISVP2,2013-01-09 17:11:00,
2013-01-09 11:16:00,45.8,38.3,30.37,West,268,5.0,10.0,75,0.00,,,0.06,WUHU216DAVISVP2,2013-01-09 17:16:00,
2013-01-09 11:21:00,46.1,38.7,30.36,West,279,4.0,12.0,75,0.00,,,0.06,WUHU216DAVISVP2,2013-01-09 17:21:00,
2013-01-09 11:26:00,46.2,38.8,30.36,WNW,295,3.0,12.0,75,0.00,,,0.06,WUHU216DAVISVP2,2013-01-09 17:26:00,
2013-01-09 11:31:00,46.1,38.0,30.36,WNW,289,5.0,12.0,73,0.00,,,0.06,WUHU216DAVISVP2,2013-01-09 17:31:00,
2013-01-09 11:36:00,46.1,38.3,30.36,West,260,6.0,12.0,74,0.00,,,0.06,WUHU216DAVISVP2,2013-01-09 17:36:00,
2013-01-09 11:41:00,46.2,37.8,30.35,West,266,9.0,12.0,72,0.00,,,0.06,WUHU216DAVISVP2,2013-01-09 17:41:00,
2013-01-09 11:46:00,46.3,36.8,30.35,West,262,8.0,16.0,69,0.00,,,0.06,WUHU216DAVISVP2,2013-01-09 17:46:00,
2013-01-09 11:51:00,46.6,37.0,30.35,WSW,258,10.0,16.0,69,0.00,,,0.06,WUHU216DAVISVP2,2013-01-09 17:51:00,
2013-01-09 11:56:00,46.6,36.4,30.34,WSW,249,9.0,16.0,67,0.00,,,0.06,WUHU216DAVISVP2,2013-01-09 17:56:00,
2013-01-09 12:01:00,46.7,36.8,30.34,West,277,8.0,16.0,68,0.00,,,0.06,WUHU216DAVISVP2,2013-01-09 18:01:00,
2013-01-09 12:06:00,46.9,36.3,30.34,West,276,10.0,15.0,66,0.00,,,0.06,WUHU216DAVISVP2,2013-01-09 18:06:00,
2013-01-09 12:11:00,47.2,36.1,30.34,West,262,8.0,15.0,65,0.00,,,0.06,WUHU216DAVISVP2,2013-01-09 18:11:00,
2013-01-09 12:16:00,47.5,36.4,30.34,West,270,5.0,14.0,65,0.00,,,0.06,WUHU216DAVISVP2,2013-01-09 18:16:00,
2013-01-09 12:21:00,47.7,36.2,30.34,West,262,7.0,14.0,64,0.00,,,0.06,WUHU216DAVISVP2,2013-01-09 18:21:00,
2013-01-09 12:26:00,47.8,35.9,30.34,WSW,245,8.0,12.0,63,0.00,,,0.06,WUHU216DAVISVP2,2013-01-09 18:26:00,
2013-01-09 12:31:00,47.9,36.4,30.34,West,273,5.0,11.0,64,0.00,,,0.06,WUHU216DAVISVP2,2013-01-09 18:31:00,
2013-01-09 12:36:00,48.0,35.7,30.34,WSW,249,6.0,11.0,62,0.00,,,0.06,WUHU216DAVISVP2,2013-01-09 18:36:00,
2013-01-09 12:41:00,48.2,35.9,30.34,West,270,10.0,11.0,62,0.00,,,0.06,WUHU216DAVISVP2,2013-01-09 18:41:00,
2013-01-09 12:42:00,48.2,35.5,30.34,WSW,258,7.0,12.0,61,0.00,,,0.06,WUHU216DAVISVP2,2013-01-09 18:42:00,
2013-01-09 12:44:00,48.2,35.1,30.34,WSW,258,11.0,13.0,60,0.00,,,0.06,WUHU216DAVISVP2,2013-01-09 18:44:00,
2013-01-09 12:48:00,48.2,35.9,30.34,West,278,8.0,13.0,62,0.00,,,0.06,WUHU216DAVISVP2,2013-01-09 18:48:00,
2013-01-09 12:53:00,48.4,36.1,30.34,WSW,245,7.0,13.0,62,0.00,,,0.06,WUHU216DAVISVP2,2013-01-09 18:53:00,
2013-01-09 12:58:00,48.6,35.8,30.33,West,266,10.0,13.0,61,0.00,,,0.06,WUHU216DAVISVP2,2013-01-09 18:58:00,
2013-01-09 13:03:00,48.7,35.9,30.33,West,270,9.0,12.0,61,0.00,,,0.06,WUHU216DAVISVP2,2013-01-09 19:03:00,
2013-01-09 13:08:00,48.9,35.7,30.32,West,265,5.0,12.0,60,0.00,,,0.06,WUHU216DAVISVP2,2013-01-09 19:08:00,
2013-01-09 13:13:00,49.1,36.3,30.32,West,269,8.0,12.0,61,0.00,,,0.06,WUHU216DAVISVP2,2013-01-09 19:13:00,
2013-01-09 13:18:00,49.2,36.0,30.32,West,278,7.0,12.0,60,0.00,,,0.06,WUHU216DAVISVP2,2013-01-09 19:18:00,
2013-01-09 13:23:00,49.5,35.9,30.33,WNW,297,6.0,12.0,59,0.00,,,0.06,WUHU216DAVISVP2,2013-01-09 19:23:00,
2013-01-09 13:28:00,49.8,35.7,30.33,West,271,5.0,10.0,58,0.00,,,0.06,WUHU216DAVISVP2,2013-01-09 19:28:00,
2013-01-09 13:33:00,49.9,35.3,30.32,WNW,290,5.0,11.0,57,0.00,,,0.06,WUHU216DAVISVP2,2013-01-09 19:33:00,
2013-01-09 13:38:00,49.8,34.8,30.32,WNW,283,9.0,11.0,56,0.00,,,0.06,WUHU216DAVISVP2,2013-01-09 19:38:00,
2013-01-09 13:43:00,49.8,35.2,30.32,West,274,4.0,11.0,57,0.00,,,0.06,WUHU216DAVISVP2,2013-01-09 19:43:00,
2013-01-09 13:48:00,49.8,35.2,30.32,West,270,10.0,11.0,57,0.00,,,0.06,WUHU216DAVISVP2,2013-01-09 19:48:00,
2013-01-09 13:53:00,49.8,35.7,30.32,West,276,6.0,11.0,58,0.00,,,0.06,WUHU216DAVISVP2,2013-01-09 19:53:00,
2013-01-09 13:58:00,50.0,35.9,30.32,West,265,4.0,11.0,58,0.00,,,0.06,WUHU216DAVISVP2,2013-01-09 19:58:00,
2013-01-09 14:03:00,49.8,35.7,30.32,West,270,6.0,12.0,58,0.00,,,0.06,WUHU216DAVISVP2,2013-01-09 20:03:00,
2013-01-09 14:08:00,49.9,36.2,30.32,West,262,4.0,12.0,59,0.00,,,0.06,WUHU216DAVISVP2,2013-01-09 20:08:00,
2013-01-09 14:13:00,49.9,36.3,30.32,West,267,4.0,12.0,59,0.00,,,0.06,WUHU216DAVISVP2,2013-01-09 20:13:00,
2013-01-09 14:18:00,50.0,36.3,30.31,West,262,9.0,12.0,59,0.00,,,0.06,WUHU216DAVISVP2,2013-01-09 20:18:00,
2013-01-09 14:23:00,50.2,36.0,30.31,West,260,8.0,11.0,58,0.00,,,0.06,WUHU216DAVISVP2,2013-01-09 20:23:00,
2013-01-09 14:28:00,50.3,35.7,30.31,West,279,11.0,11.0,57,0.00,,,0.06,WUHU216DAVISVP2,2013-01-09 20:28:00,
2013-01-09 14:33:00,50.4,35.8,30.31,West,260,6.0,11.0,57,0.00,,,0.06,WUHU216DAVISVP2,2013-01-09 20:33:00,
2013-01-09 14:38:00,50.7,36.1,30.32,West,273,11.0,11.0,57,0.00,,,0.06,WUHU216DAVISVP2,2013-01-09 20:38:00,
2013-01-09 14:43:00,50.8,36.1,30.32,West,279,6.0,12.0,57,0.00,,,0.06,WUHU216DAVISVP2,2013-01-09 20:43:00,
2013-01-09 14:48:00,50.8,36.2,30.32,West,270,7.0,13.0,57,0.00,,,0.06,WUHU216DAVISVP2,2013-01-09 20:48:00,
2013-01-09 14:53:00,50.9,36.3,30.33,West,266,4.0,13.0,57,0.00,,,0.06,WUHU216DAVISVP2,2013-01-09 20:53:00,
2013-01-09 14:58:00,51.0,36.4,30.33,WSW,252,7.0,13.0,57,0.00,,,0.06,WUHU216DAVISVP2,2013-01-09 20:58:00,
2013-01-09 15:03:00,51.1,36.5,30.33,West,275,8.0,13.0,57,0.00,,,0.06,WUHU216DAVISVP2,2013-01-09 21:03:00,
2013-01-09 15:08:00,51.2,36.6,30.33,West,277,6.0,12.0,57,0.00,,,0.06,WUHU216DAVISVP2,2013-01-09 21:08:00,
2013-01-09 15:13:00,51.3,36.7,30.33,West,268,6.0,12.0,57,0.00,,,0.06,WUHU216DAVISVP2,2013-01-09 21:13:00,
2013-01-09 15:18:00,51.4,36.8,30.33,West,273,3.0,12.0,57,0.00,,,0.06,WUHU216DAVISVP2,2013-01-09 21:18:00,
2013-01-09 15:23:00,51.4,36.8,30.33,West,264,5.0,10.0,57,0.00,,,0.06,WUHU216DAVISVP2,2013-01-09 21:23:00,
2013-01-09 15:28:00,51.5,36.9,30.33,West,265,5.0,10.0,57,0.00,,,0.06,WUHU216DAVISVP2,2013-01-09 21:28:00,
2013-01-09 15:33:00,51.6,37.4,30.33,West,260,6.0,10.0,58,0.00,,,0.06,WUHU216DAVISVP2,2013-01-09 21:33:00,
2013-01-09 15:38:00,51.8,37.5,30.33,West,261,6.0,11.0,58,0.00,,,0.06,WUHU216DAVISVP2,2013-01-09 21:38:00,
2013-01-09 15:43:00,51.8,37.1,30.33,WSW,244,9.0,11.0,57,0.00,,,0.06,WUHU216DAVISVP2,2013-01-09 21:43:00,
2013-01-09 15:48:00,51.9,37.2,30.33,West,261,6.0,11.0,57,0.00,,,0.06,WUHU216DAVISVP2,2013-01-09 21:48:00,
2013-01-09 15:53:00,51.9,37.2,30.33,WSW,249,6.0,11.0,57,0.00,,,0.06,WUHU216DAVISVP2,2013-01-09 21:53:00,
2013-01-09 15:58:00,51.9,37.3,30.32,WSW,257,7.0,11.0,57,0.00,,,0.06,WUHU216DAVISVP2,2013-01-09 21:58:00,
2013-01-09 16:03:00,51.9,37.6,30.32,WSW,246,10.0,11.0,58,0.00,,,0.06,WUHU216DAVISVP2,2013-01-09 22:03:00,
2013-01-09 16:08:00,51.9,37.7,30.32,West,263,9.0,11.0,58,0.00,,,0.06,WUHU216DAVISVP2,2013-01-09 22:08:00,
2013-01-09 16:13:00,51.9,39.0,30.32,WSW,247,7.0,12.0,61,0.00,,,0.06,WUHU216DAVISVP2,2013-01-09 22:13:00,
2013-01-09 16:18:00,52.0,37.7,30.33,WSW,256,4.0,12.0,58,0.00,,,0.06,WUHU216DAVISVP2,2013-01-09 22:18:00,
2013-01-09 16:23:00,52.0,38.2,30.33,West,262,4.0,12.0,59,0.00,,,0.06,WUHU216DAVISVP2,2013-01-09 22:23:00,
2013-01-09 16:28:00,52.0,38.2,30.33,West,264,3.0,10.0,59,0.00,,,0.06,WUHU216DAVISVP2,2013-01-09 22:28:00,
2013-01-09 16:33:00,52.1,38.3,30.33,West,263,5.0,10.0,59,0.00,,,0.06,WUHU216DAVISVP2,2013-01-09 22:33:00,
2013-01-09 16:38:00,52.0,38.7,30.33,WSW,256,2.0,9.0,60,0.00,,,0.06,WUHU216DAVISVP2,2013-01-09 22:38:00,
2013-01-09 16:43:00,52.0,38.6,30.33,West,272,4.0,9.0,60,0.00,,,0.06,WUHU216DAVISVP2,2013-01-09 22:43:00,
2013-01-09 16:48:00,52.0,38.7,30.33,West,267,4.0,9.0,60,0.00,,,0.06,WUHU216DAVISVP2,2013-01-09 22:48:00,
2013-01-09 16:53:00,52.1,39.1,30.33,West,261,4.0,8.0,61,0.00,,,0.06,WUHU216DAVISVP2,2013-01-09 22:53:00,
2013-01-09 16:58:00,51.9,39.0,30.33,WSW,256,5.0,8.0,61,0.00,,,0.06,WUHU216DAVISVP2,2013-01-09 22:58:00,
2013-01-09 17:03:00,51.9,38.9,30.32,WSW,247,5.0,8.0,61,0.00,,,0.06,WUHU216DAVISVP2,2013-01-09 23:03:00,
2013-01-09 17:08:00,51.7,39.2,30.33,SW,227,7.0,8.0,62,0.00,,,0.06,WUHU216DAVISVP2,2013-01-09 23:08:00,
2013-01-09 17:13:00,51.8,39.3,30.32,SW,236,4.0,8.0,62,0.00,,,0.06,WUHU216DAVISVP2,2013-01-09 23:13:00,
2013-01-09 17:18:00,51.7,39.2,30.32,WSW,249,8.0,9.0,62,0.00,,,0.06,WUHU216DAVISVP2,2013-01-09 23:18:00,
2013-01-09 17:23:00,51.9,39.4,30.33,WSW,241,6.0,10.0,62,0.00,,,0.06,WUHU216DAVISVP2,2013-01-09 23:23:00,
2013-01-09 17:28:00,51.9,39.4,30.33,West,261,6.0,10.0,62,0.00,,,0.06,WUHU216DAVISVP2,2013-01-09 23:28:00,
2013-01-09 17:33:00,52.0,39.0,30.33,West,262,3.0,10.0,61,0.00,,,0.06,WUHU216DAVISVP2,2013-01-09 23:33:00,
2013-01-09 17:38:00,52.0,39.1,30.33,WSW,250,3.0,11.0,61,0.00,,,0.06,WUHU216DAVISVP2,2013-01-09 23:38:00,
2013-01-09 17:43:00,52.0,39.5,30.33,WSW,245,6.0,11.0,62,0.00,,,0.06,WUHU216DAVISVP2,2013-01-09 23:43:00,
2013-01-09 17:48:00,52.1,39.6,30.33,SW,225,7.0,11.0,62,0.00,,,0.06,WUHU216DAVISVP2,2013-01-09 23:48:00,
2013-01-09 17:53:00,52.2,40.1,30.32,WSW,244,7.0,11.0,63,0.00,,,0.06,WUHU216DAVISVP2,2013-01-09 23:53:00,
2013-01-09 17:58:00,52.3,40.2,30.32,WSW,243,7.0,10.0,63,0.00,,,0.06,WUHU216DAVISVP2,2013-01-09 23:58:00,
2013-01-09 18:03:00,52.3,40.2,30.32,WSW,247,7.0,12.0,63,0.00,,,0.06,WUHU216DAVISVP2,2013-01-10 00:03:00,
2013-01-09 18:08:00,52.1,40.0,30.32,WSW,249,8.0,12.0,63,0.00,,,0.06,WUHU216DAVISVP2,2013-01-10 00:08:00,
2013-01-09 18:13:00,52.1,40.0,30.32,West,262,7.0,12.0,63,0.00,,,0.06,WUHU216DAVISVP2,2013-01-10 00:13:00,
2013-01-09 18:18:00,52.0,39.9,30.32,West,260,7.0,12.0,63,0.00,,,0.06,WUHU216DAVISVP2,2013-01-10 00:18:00,
2013-01-09 18:23:00,51.8,40.1,30.32,WSW,254,7.0,12.0,64,0.00,,,0.06,WUHU216DAVISVP2,2013-01-10 00:23:00,
2013-01-09 18:28:00,51.7,40.0,30.32,WSW,247,5.0,12.0,64,0.00,,,0.06,WUHU216DAVISVP2,2013-01-10 00:28:00,
2013-01-09 18:33:00,51.4,40.2,30.32,WSW,254,8.0,12.0,65,0.00,,,0.06,WUHU216DAVISVP2,2013-01-10 00:33:00,
2013-01-09 18:38:00,51.4,40.2,30.32,West,260,9.0,12.0,65,0.00,,,0.06,WUHU216DAVISVP2,2013-01-10 00:38:00,
2013-01-09 18:43:00,51.3,40.0,30.31,WSW,249,3.0,13.0,65,0.00,,,0.06,WUHU216DAVISVP2,2013-01-10 00:43:00,
2013-01-09 18:48:00,51.1,39.9,30.32,WSW,246,9.0,13.0,65,0.00,,,0.06,WUHU216DAVISVP2,2013-01-10 00:48:00,
2013-01-09 18:53:00,51.0,39.8,30.32,West,260,5.0,13.0,65,0.00,,,0.06,WUHU216DAVISVP2,2013-01-10 00:53:00,
2013-01-09 18:58:00,50.9,39.6,30.32,West,266,9.0,13.0,65,0.00,,,0.06,WUHU216DAVISVP2,2013-01-10 00:58:00,
2013-01-09 19:03:00,50.7,39.5,30.32,West,265,4.0,13.0,65,0.00,,,0.06,WUHU216DAVISVP2,2013-01-10 01:03:00,
2013-01-09 19:08:00,50.5,39.3,30.33,West,270,6.0,12.0,65,0.00,,,0.06,WUHU216DAVISVP2,2013-01-10 01:08:00,
2013-01-09 19:13:00,50.4,39.1,30.33,West,279,4.0,12.0,65,0.00,,,0.06,WUHU216DAVISVP2,2013-01-10 01:13:00,
2013-01-09 19:18:00,50.2,39.4,30.33,WNW,287,7.0,11.0,66,0.00,,,0.06,WUHU216DAVISVP2,2013-01-10 01:18:00,
2013-01-09 19:23:00,50.0,39.2,30.33,West,270,7.0,11.0,66,0.00,,,0.06,WUHU216DAVISVP2,2013-01-10 01:23:00,
2013-01-09 19:28:00,49.8,39.1,30.34,West,281,6.0,9.0,66,0.00,,,0.06,WUHU216DAVISVP2,2013-01-10 01:28:00,
2013-01-09 19:33:00,49.6,38.8,30.34,WNW,282,5.0,9.0,66,0.00,,,0.06,WUHU216DAVISVP2,2013-01-10 01:33:00,
2013-01-09 19:38:00,49.5,38.7,30.35,WNW,285,5.0,11.0,66,0.00,,,0.06,WUHU216DAVISVP2,2013-01-10 01:38:00,
2013-01-09 19:43:00,49.3,38.6,30.35,West,281,5.0,11.0,66,0.00,,,0.06,WUHU216DAVISVP2,2013-01-10 01:43:00,
2013-01-09 19:48:00,49.2,38.8,30.35,West,281,6.0,11.0,67,0.00,,,0.06,WUHU216DAVISVP2,2013-01-10 01:48:00,
2013-01-09 19:53:00,49.1,38.7,30.34,West,279,5.0,11.0,67,0.00,,,0.06,WUHU216DAVISVP2,2013-01-10 01:53:00,
2013-01-09 19:58:00,48.9,38.6,30.34,West,268,5.0,9.0,67,0.00,,,0.06,WUHU216DAVISVP2,2013-01-10 01:58:00,
2013-01-09 20:03:00,48.9,38.2,30.34,West,271,5.0,9.0,66,0.00,,,0.06,WUHU216DAVISVP2,2013-01-10 02:03:00,
2013-01-09 20:08:00,49.0,37.8,30.34,West,278,6.0,9.0,65,0.00,,,0.06,WUHU216DAVISVP2,2013-01-10 02:08:00,
2013-01-09 20:13:00,48.9,37.8,30.34,West,275,5.0,10.0,65,0.00,,,0.06,WUHU216DAVISVP2,2013-01-10 02:13:00,
2013-01-09 20:18:00,49.0,37.1,30.34,West,260,12.0,16.0,63,0.00,,,0.06,WUHU216DAVISVP2,2013-01-10 02:18:00,
2013-01-09 20:23:00,49.2,36.8,30.34,WSW,258,11.0,16.0,62,0.00,,,0.06,WUHU216DAVISVP2,2013-01-10 02:23:00,
2013-01-09 20:28:00,49.2,36.5,30.34,WSW,250,7.0,16.0,61,0.00,,,0.06,WUHU216DAVISVP2,2013-01-10 02:28:00,
2013-01-09 20:33:00,49.3,36.5,30.34,West,266,6.0,16.0,61,0.00,,,0.06,WUHU216DAVISVP2,2013-01-10 02:33:00,
2013-01-09 20:38:00,49.2,36.0,30.34,West,274,9.0,14.0,60,0.00,,,0.06,WUHU216DAVISVP2,2013-01-10 02:38:00,
2013-01-09 20:43:00,49.3,36.0,30.34,West,265,11.0,14.0,60,0.00,,,0.06,WUHU216DAVISVP2,2013-01-10 02:43:00,
2013-01-09 20:48:00,49.3,36.1,30.34,West,270,8.0,14.0,60,0.00,,,0.06,WUHU216DAVISVP2,2013-01-10 02:48:00,
2013-01-09 20:53:00,49.2,36.0,30.34,West,270,9.0,16.0,60,0.00,,,0.06,WUHU216DAVISVP2,2013-01-10 02:53:00,
2013-01-09 20:58:00,49.4,36.1,30.33,West,271,7.0,16.0,60,0.00,,,0.06,WUHU216DAVISVP2,2013-01-10 02:58:00,
2013-01-09 21:03:00,49.2,36.0,30.33,West,269,6.0,16.0,60,0.00,,,0.06,WUHU216DAVISVP2,2013-01-10 03:03:00,
2013-01-09 21:08:00,49.3,36.1,30.33,WNW,286,10.0,19.0,60,0.00,,,0.06,WUHU216DAVISVP2,2013-01-10 03:08:00,
2013-01-09 21:13:00,49.2,36.0,30.33,West,270,13.0,19.0,60,0.00,,,0.06,WUHU216DAVISVP2,2013-01-10 03:13:00,
2013-01-09 21:18:00,49.2,35.6,30.32,West,264,11.0,19.0,59,0.00,,,0.06,WUHU216DAVISVP2,2013-01-10 03:18:00,
2013-01-09 21:23:00,49.3,35.7,30.32,West,281,13.0,19.0,59,0.00,,,0.06,WUHU216DAVISVP2,2013-01-10 03:23:00,
2013-01-09 21:28:00,49.4,35.7,30.32,WNW,293,8.0,18.0,59,0.00,,,0.06,WUHU216DAVISVP2,2013-01-10 03:28:00,
2013-01-09 21:33:00,49.3,35.6,30.32,West,272,12.0,18.0,59,0.00,,,0.06,WUHU216DAVISVP2,2013-01-10 03:33:00,
2013-01-09 21:38:00,49.1,35.9,30.32,WNW,285,13.0,18.0,60,0.00,,,0.06,WUHU216DAVISVP2,2013-01-10 03:38:00,
2013-01-09 21:43:00,49.1,35.9,30.31,West,278,11.0,18.0,60,0.00,,,0.06,WUHU216DAVISVP2,2013-01-10 03:43:00,
2013-01-09 21:48:00,49.1,35.9,30.31,West,271,10.0,15.0,60,0.00,,,0.06,WUHU216DAVISVP2,2013-01-10 03:48:00,
2013-01-09 21:53:00,49.1,35.9,30.31,WNW,288,15.0,15.0,60,0.00,,,0.06,WUHU216DAVISVP2,2013-01-10 03:53:00,
2013-01-09 21:58:00,49.0,36.3,30.31,WNW,286,8.0,16.0,61,0.00,,,0.06,WUHU216DAVISVP2,2013-01-10 03:58:00,
2013-01-09 22:03:00,49.0,36.2,30.31,WNW,299,12.0,16.0,61,0.00,,,0.06,WUHU216DAVISVP2,2013-01-10 04:03:00,
2013-01-09 22:08:00,49.0,36.2,30.31,NW,306,12.0,16.0,61,0.00,,,0.06,WUHU216DAVISVP2,2013-01-10 04:08:00,
2013-01-09 22:13:00,49.0,36.2,30.31,WNW,282,9.0,17.0,61,0.00,,,0.06,WUHU216DAVISVP2,2013-01-10 04:13:00,
2013-01-09 22:18:00,49.1,36.3,30.31,WNW,299,8.0,18.0,61,0.00,,,0.06,WUHU216DAVISVP2,2013-01-10 04:18:00,
2013-01-09 22:23:00,49.0,35.8,30.31,WNW,284,8.0,18.0,60,0.00,,,0.06,WUHU216DAVISVP2,2013-01-10 04:23:00,
2013-01-09 22:28:00,49.0,35.8,30.30,WNW,291,11.0,18.0,60,0.00,,,0.06,WUHU216DAVISVP2,2013-01-10 04:28:00,
2013-01-09 22:33:00,48.9,35.7,30.30,NW,305,9.0,17.0,60,0.00,,,0.06,WUHU216DAVISVP2,2013-01-10 04:33:00,
2013-01-09 22:38:00,48.9,35.3,30.30,WNW,283,14.0,18.0,59,0.00,,,0.06,WUHU216DAVISVP2,2013-01-10 04:38:00,
2013-01-09 22:43:00,48.9,35.2,30.30,WNW,282,14.0,18.0,59,0.00,,,0.06,WUHU216DAVISVP2,2013-01-10 04:43:00,
2013-01-09 22:48:00,48.8,34.8,30.30,WNW,285,10.0,18.0,58,0.00,,,0.06,WUHU216DAVISVP2,2013-01-10 04:48:00,
2013-01-09 22:53:00,48.8,34.3,30.30,West,277,11.0,18.0,57,0.00,,,0.06,WUHU216DAVISVP2,2013-01-10 04:53:00,
2013-01-09 22:58:00,48.8,34.3,30.30,WNW,299,10.0,18.0,57,0.00,,,0.06,WUHU216DAVISVP2,2013-01-10 04:58:00,
2013-01-09 23:00:00,48.9,34.4,30.30,West,271,10.0,18.0,57,0.00,,,0.06,WUHU216DAVISVP2,2013-01-10 05:00:00,
2013-01-09 23:01:00,48.9,34.4,30.30,West,278,7.0,18.0,57,0.00,,,0.06,WUHU216DAVISVP2,2013-01-10 05:01:00,
2013-01-09 23:06:00,48.9,33.9,30.30,WNW,290,6.0,20.0,56,0.00,,,0.06,WUHU216DAVISVP2,2013-01-10 05:06:00,
2013-01-09 23:11:00,49.0,34.0,30.30,West,273,7.0,20.0,56,0.00,,,0.06,WUHU216DAVISVP2,2013-01-10 05:11:00,
2013-01-09 23:16:00,48.8,33.9,30.29,WNW,283,8.0,20.0,56,0.00,,,0.06,WUHU216DAVISVP2,2013-01-10 05:16:00,
2013-01-09 23:21:00,48.8,33.9,30.29,WNW,301,5.0,20.0,56,0.00,,,0.06,WUHU216DAVISVP2,2013-01-10 05:21:00,
2013-01-09 23:26:00,48.6,33.7,30.29,WNW,294,10.0,18.0,56,0.00,,,0.06,WUHU216DAVISVP2,2013-01-10 05:26:00,
2013-01-09 23:31:00,48.6,33.7,30.29,WNW,291,8.0,18.0,56,0.00,,,0.06,WUHU216DAVISVP2,2013-01-10 05:31:00,
2013-01-09 23:36:00,48.5,33.6,30.29,WNW,289,13.0,17.0,56,0.00,,,0.06,WUHU216DAVISVP2,2013-01-10 05:36:00,
2013-01-09 23:41:00,48.5,33.6,30.29,WNW,293,5.0,17.0,56,0.00,,,0.06,WUHU216DAVISVP2,2013-01-10 05:41:00,
2013-01-09 23:46:00,48.4,34.3,30.28,West,276,7.0,17.0,58,0.00,,,0.06,WUHU216DAVISVP2,2013-01-10 05:46:00,
2013-01-09 23:51:00,48.2,34.1,30.29,WNW,301,9.0,17.0,58,0.00,,,0.06,WUHU216DAVISVP2,2013-01-10 05:51:00,
2013-01-09 23:56:00,48.1,34.0,30.29,WNW,288,7.0,14.0,58,0.00,,,0.06,WUHU216DAVISVP2,2013-01-10 05:56:00,